Location: Unspecified
(0.0000°N, 0.0000°E)
Time: 11:30:33
(UTC+00:00)

LightSail 2 - Pass Details

Date: 20 August 2019
Orbit: 696 x 730 km, 24.0° (Epoch: 07 December)

Event Time Altitude Azimuth Distance (km) Brightness Sun altitude
Exits shadow 03:33:18 24° 88° (E) 1,452 7.2 -36.5°
Drops below altitude 10° 03:35:31 10° 99° (E) 2,200 8.3 -36.0°
Sets 03:38:03 0° 105° (ESE) 3,129 9.2 -35.4°
